Home   Weather   Bocholt   Past weeks

Flag for Germany Past Weather in Bocholt, North Rhine-Westphalia, Germany — Yesterday and Last 2 Weeks

Now
63 °F

Passing clouds.


Feels Like: 63 °F
Forecast: 47 / 52 °F
Wind: 7 mph from Southeast

Location: Niederrhein

Current Time: Apr 30, 2017 at 9:01:46 pm

Latest Report: Apr 30, 2017 at 8:20 pm


Visibility: N/A

Pressure: 29.68 "Hg

Humidity: 34%

Dew Point: 34 °F

Location of BocholtLocation

Past Weather in Bocholt — Graph

°F

Bocholt Temperature Yesterday

Maximum temperature yesterday: 55 °F (at 1:20 pm)
Minimum temperature yesterday: 37 °F (at 4:50 am)
Average temperature yesterday: 49 °F

High & Low Weather Summary for the Past Weeks

 TemperatureHumidityPressure
High66 °F (Apr 30, 4:20 pm)100% (Apr 17, 4:50 am)30.63 "Hg (Apr 17, 4:50 am)
Low27 °F (Apr 20, 6:50 am)28% (Apr 20, 4:20 pm)29.68 "Hg (Apr 30, 6:50 pm)
Average47 °F64%30.14 "Hg
* Reported Apr 15 7:20 pm — Apr 30 7:50 pm, Bocholt, Weather by CustomWeather, © 2017

Note: Actual official high and low records may vary slightly from our data, if they occured in-between our weather recording intervals... More about our weather records

Advertising

Bocholt Weather History for the Previous 24 Hours

Scroll right to see more
 ConditionsComfort  
Time TempWeatherWind HumidityBarometerVisibility
7:50 pm
Sun, Apr 30
64 °FPassing clouds.12 mph32%29.68 "HgN/A
7:20 pm64 °FPassing clouds.16 mph32%29.68 "HgN/A
6:50 pm66 °FPassing clouds.13 mph30%29.68 "HgN/A
6:20 pm66 °FPassing clouds.14 mph30%29.71 "HgN/A
5:50 pm66 °FSunny.16 mph30%29.71 "Hg10 mi
5:20 pm66 °FPassing clouds.16 mph30%29.74 "HgN/A
4:50 pm66 °FPassing clouds.18 mph30%29.74 "HgN/A
4:20 pm66 °FPassing clouds.15 mph30%29.74 "HgN/A
3:50 pm64 °FPassing clouds.15 mph32%29.77 "HgN/A
3:20 pm64 °FSunny.17 mph32%29.77 "Hg10 mi
2:50 pm64 °FPassing clouds.17 mph30%29.77 "HgN/A
2:20 pm64 °FPassing clouds.17 mph30%29.80 "HgN/A
1:50 pm63 °FPassing clouds.16 mph32%29.80 "HgN/A
1:20 pm63 °FPassing clouds.18 mph34%29.83 "HgN/A
12:50 pm63 °FPassing clouds.21 mph32%29.83 "HgN/A
12:20 pm61 °FSunny.21 mph36%29.86 "Hg10 mi
11:50 am61 °FPassing clouds.16 mph39%29.86 "HgN/A
11:20 am57 °FPassing clouds.16 mph41%29.89 "HgN/A
10:50 am55 °FPassing clouds.14 mph47%29.89 "HgN/A
10:20 am54 °FPassing clouds.15 mph47%29.89 "HgN/A
9:50 am52 °FSunny.14 mph50%29.92 "Hg10 mi
9:20 am50 °FPassing clouds.12 mph54%29.92 "HgN/A
8:50 am46 °FPassing clouds.10 mph57%29.92 "HgN/A
8:20 am45 °FPassing clouds.9 mph61%29.95 "HgN/A
7:50 am43 °FPassing clouds.9 mph66%29.95 "HgN/A
7:20 am41 °FPassing clouds.8 mph70%29.95 "HgN/A
6:50 am37 °FPassing clouds.8 mph75%29.95 "HgN/A
6:20 am37 °FPassing clouds.8 mph75%29.95 "HgN/A
5:50 am37 °FPassing clouds.7 mph75%29.98 "HgN/A
5:20 am41 °FPassing clouds.5 mph66%29.98 "HgN/A
4:50 am37 °FPassing clouds.6 mph75%29.98 "HgN/A
11:50 pm
Sat, Apr 29
45 °FPassing clouds.5 mph61%30.01 "HgN/A
11:20 pm46 °FClear.3 mph57%30.01 "Hg10 mi
10:50 pm48 °FClear.3 mph54%30.01 "Hg10 mi
10:20 pm46 °FClear.3 mph57%30.04 "Hg10 mi
9:20 pm48 °FSunny.3 mph54%30.04 "Hg10 mi
Weather by CustomWeather, © 2017

See weather overviewHow to use our weather pages